RH
12 13 15 15 16 16 15 15 16 18 21 26 30 32 33 31 33 34 32 32 36 33 23 26 33 35 35 33 34 34 31 27 26 27 25 24 23 24 21 17 13 6 4 5 6 6 7 6 5 5 5 6 7 8 8 8 9 9 9 9 9 8 8 8 9 9 10 11 11 11 11 12 13 14 14 15 16 17 15 13 11 8 9 13 13 12 15 18 20 20 23 31 32 27 23 21 22
10 11 11 11 12 12 12 12 12 14 17 22 27 31 32 32 34 34 33 34 38 31 20 28 34 32 34 31 26 26 28 24 17 16 15 14 15 15 14 14 9 5 5 5 6 6 6 5 5 6 6 7 8 8 9 9 9 9 9 9 9 9 8 8 9 10 11 12 12 12 12 12 13 15 15 16 18 18 18 15 13 9 8 12 16 13 16 20 21 23 25 34 37 29 25 22 21
8 8 8 8 8 8 9 8 8 10 12 16 21 27 30 30 31 33 35 32 28 25 24 30 31 28 31 28 20 21 25 21 14 12 16 17 15 14 12 9 5 5 5 5 6 6 6 5 6 6 8 8 9 10 10 10 10 10 10 9 9 9 9 9 9 11 12 12 13 13 12 12 13 16 17 18 19 20 20 18 14 11 8 10 17 16 16 22 24 26 29 37 42 32 27 24 22
6 6 6 6 6 6 6 6 6 7 9 11 15 24 30 28 26 31 32 21 15 20 27 30 28 26 26 21 17 22 25 26 24 20 20 16 12 12 8 6 5 5 6 6 7 6 6 6 7 8 9 9 10 11 10 11 10 10 10 10 9 9 9 10 10 11 13 13 14 14 14 13 14 17 20 21 22 23 23 20 17 12 9 9 17 20 17 23 26 29 33 38 45 37 29 27 24
5 5 5 5 6 5 5 5 5 5 7 8 13 26 31 29 27 30 29 18 15 20 26 27 24 25 26 17 11 17 22 30 32 24 19 12 8 8 5 5 6 7 7 7 6 6 6 6 8 8 9 10 10 11 11 11 11 11 10 10 10 10 10 11 12 13 14 15 15 16 16 16 16 19 22 24 25 26 27 24 20 15 12 9 14 22 20 25 29 30 37 40 45 42 32 29 25
5 5 4 5 5 4 4 4 4 4 5 5 12 26 27 27 28 29 28 21 17 20 24 23 20 23 27 18 8 13 17 23 21 14 16 11 7 6 5 7 6 7 7 6 6 6 7 8 9 9 10 10 11 11 11 11 11 11 10 11 11 10 11 12 14 14 16 17 18 19 19 20 21 22 23 26 29 31 32 29 24 20 16 10 12 22 24 27 32 31 39 44 46 46 36 31 27
5 5 4 5 4 5 4 3 4 3 6 6 9 24 30 26 23 25 23 19 18 21 22 18 15 14 21 19 8 10 15 17 11 9 15 11 6 6 7 7 7 7 7 6 7 7 8 9 9 10 11 11 12 12 12 12 12 12 11 12 12 12 13 14 16 16 18 20 21 23 23 25 26 25 25 27 33 36 37 35 32 28 22 15 11 20 27 29 35 33 39 49 49 49 42 33 30
5 5 5 5 4 4 4 4 4 3 10 12 12 25 30 18 12 17 19 19 19 19 16 12 11 7 12 17 13 14 13 10 7 8 12 8 7 8 7 7 8 7 7 7 7 8 9 9 10 10 11 12 12 13 13 13 12 12 12 13 14 14 15 16 18 18 21 24 25 27 29 30 30 29 28 28 34 38 41 44 43 39 31 22 13 17 29 32 38 39 39 51 55 54 47 37 31
5 5 5 4 5 4 4 4 3 4 7 12 17 18 16 8 4 8 15 19 17 14 11 7 9 7 7 14 21 22 12 6 6 8 9 7 8 8 8 8 8 8 7 8 8 8 9 9 10 11 12 13 13 14 13 13 13 13 14 16 17 17 18 19 20 21 23 26 29 31 33 34 33 32 30 29 35 40 45 53 54 49 41 31 17 13 26 33 40 45 43 52 59 58 53 43 34
5 5 5 5 5 3 4 3 5 5 4 20 25 12 7 5 4 7 12 14 13 12 8 4 6 6 14 25 27 22 10 5 5 6 7 7 8 8 8 8 8 8 8 8 8 8 9 10 11 12 13 14 14 14 13 13 13 14 17 20 21 20 21 22 23 24 26 29 31 33 36 36 34 33 32 31 35 42 50 58 60 57 51 40 23 12 22 33 40 46 44 51 61 62 58 49 39
6 5 5 5 4 4 5 4 7 6 11 30 25 6 5 5 6 9 11 13 11 8 6 3 3 10 26 31 27 22 11 5 6 6 7 8 8 9 9 9 9 9 9 9 9 9 9 10 11 13 14 14 15 14 13 13 14 16 19 23 24 24 24 26 27 28 29 31 33 35 39 39 36 35 34 33 33 43 55 61 62 61 59 48 28 13 17 30 41 44 42 50 62 64 63 56 44
6 6 5 5 5 4 4 7 16 20 25 30 15 4 5 5 9 9 11 14 8 4 4 3 6 20 31 28 24 21 10 5 6 7 7 8 8 9 9 9 10 9 9 9 9 10 10 12 13 13 14 15 15 14 14 13 15 18 21 25 28 28 28 30 32 33 33 34 36 38 42 41 39 38 35 33 32 43 58 61 63 65 65 55 32 16 15 25 39 45 45 52 61 64 66 62 51
6 6 5 5 5 4 4 12 25 32 33 26 12 7 4 5 9 7 9 11 4 4 4 4 14 23 28 27 23 16 11 8 6 7 8 8 8 9 10 9 9 9 9 9 9 10 10 11 12 14 14 15 15 14 15 15 17 20 22 26 30 32 33 33 35 37 38 40 41 40 43 42 40 39 37 36 34 43 57 60 64 68 69 61 38 20 16 23 35 45 49 52 57 63 68 67 58
6 6 5 6 4 5 5 11 27 35 31 22 10 4 4 6 8 6 5 4 3 7 8 8 11 14 21 27 28 20 12 8 6 8 8 8 9 9 9 9 9 9 9 9 9 10 11 13 12 14 15 15 17 18 18 18 20 22 23 26 31 36 37 37 39 40 42 48 51 44 42 42 40 40 39 39 37 42 56 60 63 67 69 66 46 23 18 24 32 42 50 54 56 60 66 69 65
6 6 5 6 4 5 5 6 19 29 29 20 6 2 5 4 5 5 6 11 9 4 9 11 6 9 19 26 30 24 11 8 8 7 9 8 9 9 9 10 9 11 12 12 17 16 10 11 14 15 16 18 22 25 25 24 23 24 27 29 31 36 40 41 41 43 52 61 58 47 42 41 41 43 44 44 40 44 56 60 61 61 62 66 55 29 20 25 31 38 48 58 59 57 63 69 70
6 6 5 6 5 5 6 5 9 17 25 20 5 3 6 3 6 10 11 19 18 8 9 12 11 12 22 29 30 22 11 11 10 7 9 8 9 10 9 10 10 16 19 24 43 50 37 28 28 28 27 29 34 33 31 28 27 29 32 33 33 36 41 44 45 48 60 71 62 46 43 43 44 47 49 47 44 47 58 64 62 57 52 60 63 40 23 28 32 36 45 59 59 53 57 65 71
7 6 5 6 4 8 13 13 10 13 23 19 4 4 7 3 4 12 15 21 27 24 21 22 21 17 24 38 40 31 20 16 13 10 9 8 10 9 8 11 16 24 23 37 65 69 59 54 48 45 41 39 39 34 31 30 32 39 40 38 38 39 43 46 51 54 60 68 60 46 46 47 49 53 52 48 49 56 66 72 68 61 48 49 64 53 30 30 35 35 44 57 57 53 59 64 69
7 5 6 6 4 16 28 26 18 13 19 16 5 6 9 5 3 9 18 27 32 30 27 32 30 22 26 38 43 37 24 19 13 9 9 9 10 9 9 11 25 37 30 47 71 61 57 65 58 51 49 46 43 40 37 35 38 46 47 43 43 45 48 50 54 59 61 59 53 50 51 54 58 57 52 52 58 67 75 78 75 69 52 40 56 61 41 35 41 38 42 55 58 60 69 73 70
7 5 6 6 5 23 34 29 21 9 10 10 4 8 9 5 3 5 13 19 22 23 26 32 28 19 22 26 29 28 19 15 12 8 9 9 9 10 9 7 22 46 50 61 77 71 63 59 52 46 46 47 49 50 47 44 46 50 52 50 52 52 53 58 58 60 63 59 57 60 60 70 84 73 59 58 65 74 80 81 75 70 56 37 44 59 50 41 47 46 45 53 60 66 78 87 79
7 5 6 5 9 30 31 21 19 7 5 6 2 8 8 6 5 4 12 17 10 14 23 29 24 16 21 22 19 22 17 12 9 8 9 9 9 9 9 7 13 37 60 69 70 71 62 51 48 44 45 47 48 55 57 56 57 57 57 58 60 62 63 67 64 62 67 68 71 78 77 85 95 84 71 66 68 74 79 79 73 68 59 39 33 49 55 46 50 54 51 54 61 72 84 96 86
8 5 7 6 8 23 21 11 10 5 5 5 2 7 8 9 10 4 12 21 12 9 19 24 21 14 19 22 20 23 17 10 9 9 9 9 9 9 8 9 11 21 44 56 55 56 55 56 55 46 49 53 52 60 64 64 65 67 71 74 73 72 76 76 69 72 77 81 87 92 92 90 86 84 85 82 80 77 75 76 70 67 63 43 26 38 55 52 49 55 59 60 64 74 84 93 83
9 6 7 7 6 13 13 6 5 4 5 4 4 8 9 11 11 7 8 20 24 20 23 28 26 19 19 22 25 28 18 9 9 9 9 9 8 9 9 9 11 13 22 33 41 48 51 58 59 50 52 54 55 60 65 71 75 77 81 87 87 82 86 87 84 90 91 91 97 97 96 94 88 87 92 92 90 83 79 79 71 69 67 43 26 35 54 58 52 54 60 63 66 71 78 86 81
9 8 8 7 5 9 8 4 4 4 5 5 6 7 13 13 8 10 9 25 49 38 22 30 33 25 24 21 23 31 22 10 10 9 8 10 9 9 9 9 10 11 12 17 30 41 44 48 50 45 47 50 53 60 68 76 75 69 66 72 81 82 89 91 88 90 89 87 89 91 93 91 87 87 90 91 93 91 87 83 75 76 68 40 30 43 57 65 64 62 63 66 67 69 73 80 83
10 9 8 7 5 8 6 5 5 4 4 5 6 4 9 12 9 14 15 29 51 35 19 34 37 29 30 28 27 36 27 12 10 11 9 9 10 10 10 10 11 11 10 15 29 36 34 37 39 40 45 46 48 55 60 62 59 55 50 53 61 71 82 85 83 79 79 81 81 87 92 88 86 86 85 83 88 94 90 83 78 80 75 50 38 53 72 75 71 69 69 71 73 71 72 74 83
11 10 8 7 6 7 6 5 4 4 6 4 5 5 4 8 10 16 18 21 26 22 25 39 43 36 37 37 33 32 27 18 13 11 11 10 9 10 11 12 12 12 12 19 31 32 30 36 42 45 47 46 45 46 44 46 50 50 47 45 46 57 66 68 74 72 72 80 87 95 97 93 90 83 78 78 87 92 86 82 83 86 84 70 57 62 78 83 77 75 73 75 79 80 80 77 83
12 10 9 8 6 7 5 5 5 5 6 5 6 6 6 8 10 13 14 12 16 24 26 31 45 44 37 38 33 25 24 22 15 10 10 9 11 13 13 14 15 16 18 25 32 34 36 41 44 44 46 47 43 37 34 40 47 49 49 43 40 45 43 47 65 73 76 85 93 99 97 90 80 73 73 75 81 84 78 75 82 91 89 82 78 72 72 76 77 75 73 73 74 79 87 87 88
13 11 9 8 7 6 6 5 5 6 6 6 7 6 6 6 9 11 7 7 14 23 24 24 39 43 39 42 37 32 30 22 13 10 10 10 14 17 16 16 15 17 22 29 35 36 40 43 45 44 41 35 29 27 31 37 41 42 41 37 36 36 33 47 70 81 87 94 97 95 84 73 63 59 60 58 59 62 65 69 77 92 94 90 91 83 66 58 61 62 62 61 62 75 88 92 92
14 12 10 9 7 6 6 6 6 7 6 6 7 8 8 4 7 9 5 7 8 21 34 28 31 38 43 48 40 36 36 24 13 10 10 11 15 17 15 15 16 19 22 25 30 35 38 36 34 31 25 20 18 20 29 38 39 37 34 31 30 28 34 54 72 77 85 94 96 84 66 54 48 45 42 42 43 43 48 62 75 87 93 93 94 93 71 44 46 54 55 54 58 75 89 90 90
15 13 11 10 9 7 6 6 7 7 7 8 8 7 7 6 9 9 5 7 5 19 33 32 43 47 42 44 40 38 38 26 15 11 11 11 15 19 18 17 18 21 21 21 27 33 30 22 19 17 14 14 14 17 31 41 41 40 38 34 31 28 34 49 61 71 79 85 80 65 52 44 38 37 37 40 42 39 38 48 67 85 92 91 87 91 75 43 42 56 59 60 55 66 87 91 89
16 14 13 10 9 9 7 8 8 8 8 8 9 10 8 6 8 8 5 7 6 9 15 25 43 46 41 41 39 41 42 33 21 14 10 12 16 18 19 17 17 20 22 26 28 25 20 16 15 14 13 13 12 17 28 37 42 40 35 32 33 34 38 42 51 69 79 78 68 55 52 51 44 43 45 48 46 42 39 37 49 73 89 92 86 84 73 47 45 60 69 72 65 66 83 92 92
18 15 13 11 10 9 8 10 9 10 10 8 10 11 9 7 7 7 6 6 8 8 8 20 34 38 42 46 50 53 47 41 34 22 12 11 14 15 15 15 14 17 21 24 22 18 16 16 15 13 14 14 13 14 17 31 43 37 29 28 27 31 38 38 41 62 77 72 65 58 57 60 60 62 61 59 56 48 45 41 39 48 60 73 84 85 74 56 53 64 74 80 81 77 78 83 85
19 15 13 11 10 10 10 9 10 12 10 10 10 10 19 22 12 6 7 6 7 11 11 24 46 49 38 46 69 68 51 48 44 33 23 15 13 14 14 13 13 14 16 17 16 16 16 15 15 14 15 14 12 10 9 28 45 38 29 26 23 24 32 38 36 54 76 74 66 62 61 66 69 71 70 65 62 56 52 50 46 42 39 42 63 83 82 71 69 72 77 84 88 86 81 77 75
21 17 15 11 11 16 15 8 10 14 11 10 10 23 48 45 18 5 9 10 7 13 20 32 49 48 38 55 74 64 50 53 50 41 35 28 21 16 13 10 10 10 10 13 13 15 16 15 15 14 15 14 11 7 4 24 45 44 37 31 27 23 27 35 30 38 63 76 75 64 57 62 67 67 67 64 60 59 57 54 51 49 45 34 38 67 85 87 88 88 86 87 90 90 90 86 83
23 18 15 13 12 21 27 16 10 13 12 10 13 42 68 50 21 11 11 15 11 10 25 45 49 42 46 61 62 56 53 51 50 48 41 35 28 20 16 12 10 9 9 12 13 14 15 14 14 13 15 13 10 7 4 18 36 39 41 40 34 28 29 28 20 21 35 54 67 66 59 56 58 58 58 55 49 50 52 51 51 48 50 46 33 41 61 69 74 84 91 93 94 94 97 95 93
24 18 16 15 10 20 40 34 16 13 15 10 15 41 53 37 24 17 13 22 23 16 23 39 41 39 53 63 63 62 55 46 48 49 43 38 29 21 18 14 12 11 11 13 13 14 14 13 13 13 14 12 9 6 3 9 18 25 38 45 41 40 39 25 13 14 15 25 42 59 67 61 58 59 60 55 41 38 40 43 48 44 46 53 46 36 36 38 38 48 68 85 93 93 95 93 90
24 19 16 15 14 25 48 49 29 21 21 17 21 27 20 19 21 16 19 26 31 37 39 31 25 36 53 61 65 61 49 46 49 50 48 41 30 24 20 15 14 13 12 13 13 14 14 12 13 14 14 11 6 5 4 4 7 15 29 41 43 43 43 30 17 14 12 19 37 47 48 52 57 51 48 47 34 30 34 34 37 36 35 41 48 48 39 31 26 29 40 60 81 86 86 86 87
35 31 18 16 27 36 48 58 46 30 30 32 37 32 17 17 18 14 23 33 40 48 47 33 24 37 49 52 58 52 42 48 54 54 49 37 28 24 21 17 14 13 12 13 14 14 13 12 13 14 14 10 4 4 4 3 6 13 23 32 35 34 36 32 25 24 21 21 34 38 36 54 61 39 31 36 29 29 32 30 28 23 19 22 33 49 53 41 30 33 40 52 70 77 77 80 83
51 57 38 31 44 43 45 63 60 46 46 48 47 43 31 28 26 23 24 36 51 53 49 41 27 29 42 52 58 48 40 50 57 54 41 28 22 18 17 15 13 13 12 13 14 13 13 13 13 15 14 8 4 4 3 3 5 10 17 20 21 20 19 20 17 19 18 13 16 16 20 44 47 28 30 36 32 35 34 32 32 22 14 15 17 33 56 58 42 34 40 51 64 71 78 84 84
46 66 59 48 48 44 44 57 66 63 56 51 48 42 33 30 32 31 28 32 38 39 51 56 40 34 46 54 54 45 45 53 53 44 28 15 12 11 11 11 10 11 11 13 14 13 13 13 14 15 14 7 3 3 3 3 3 4 8 9 9 9 7 7 7 7 8 6 6 3 5 17 18 15 27 34 36 43 41 39 39 30 25 22 15 17 35 54 55 45 36 38 49 63 76 83 85
33 52 60 54 45 42 45 50 64 69 56 51 55 47 34 30 32 33 33 37 32 26 45 65 59 50 49 49 47 42 45 49 44 33 18 8 8 7 8 8 9 10 11 14 14 13 13 13 14 16 13 7 3 4 3 3 3 3 3 3 3 4 5 6 5 5 5 3 3 5 5 7 10 14 20 27 36 44 49 51 46 39 36 32 26 21 22 35 53 61 52 39 35 44 57 70 81
30 37 44 48 49 45 46 49 59 62 55 56 57 50 40 33 40 45 41 45 46 35 36 52 61 54 42 38 36 31 30 34 31 22 13 8 7 7 7 8 8 9 12 14 13 13 13 13 15 16 12 6 3 4 4 3 3 2 2 3 2 3 5 7 6 6 6 4 4 6 7 7 9 12 13 19 31 40 48 53 49 45 42 37 35 33 30 28 33 48 59 55 42 35 38 55 80
31 34 33 43 56 52 46 51 60 62 61 60 51 46 49 47 51 54 51 54 56 48 35 34 47 50 36 25 19 16 16 19 17 12 10 8 7 7 8 8 8 10 13 14 13 13 12 14 15 14 11 6 3 4 4 3 3 3 3 2 2 3 3 4 5 6 6 5 5 6 7 7 6 8 9 11 20 34 44 49 49 47 43 37 34 33 34 33 25 26 39 51 52 46 37 43 71
27 32 31 40 54 52 49 55 62 67 68 63 47 37 42 46 48 46 49 58 56 49 41 36 41 43 30 16 11 11 11 12 12 10 9 8 8 8 7 8 9 11 13 13 13 13 13 15 15 14 10 5 4 4 3 4 4 3 3 3 2 3 2 3 3 5 6 6 6 6 5 6 5 6 6 5 11 24 37 42 42 42 40 31 27 28 31 34 33 25 25 35 45 52 48 40 52
21 29 30 32 43 46 48 53 54 59 73 78 65 51 47 41 38 37 40 55 62 54 47 43 42 39 25 12 10 11 11 12 11 10 9 8 9 9 8 10 10 11 14 14 13 13 14 15 15 15 12 7 4 4 4 4 4 4 3 3 3 2 3 4 4 5 7 7 7 7 6 6 8 8 7 6 7 15 24 26 24 34 39 28 22 26 26 30 36 32 27 30 33 42 53 45 40
16 31 32 24 36 47 48 54 55 60 77 87 73 59 56 48 39 38 35 41 51 49 47 49 47 42 29 14 10 12 11 12 12 11 10 9 9 9 11 12 11 13 14 14 15 14 14 15 16 16 15 12 6 3 4 4 4 4 3 3 3 3 3 3 4 4 6 7 7 7 7 7 8 10 13 12 10 12 16 16 18 32 40 31 26 26 25 27 35 38 35 30 28 38 55 52 38
13 44 54 33 33 45 48 52 62 76 81 72 65 56 52 53 49 44 42 42 43 40 41 48 49 48 39 22 14 13 13 13 13 12 10 9 11 11 12 14 14 15 16 16 16 15 15 15 16 17 17 15 10 4 4 4 4 4 4 4 3 3 4 4 4 4 4 6 6 6 7 7 7 8 10 12 14 14 12 12 20 31 36 33 30 30 30 30 31 36 40 34 28 33 49 55 43
13 54 80 56 35 40 51 54 60 80 77 58 71 77 60 61 61 46 44 52 54 50 46 47 49 49 45 34 22 14 15 16 14 14 12 11 13 13 14 16 16 18 19 19 18 17 18 17 17 18 17 16 13 6 4 4 5 5 4 5 4 5 5 4 5 5 6 6 6 6 6 6 6 5 6 6 9 12 9 9 17 27 32 30 25 24 26 32 31 30 35 38 33 30 37 50 49
10 41 77 71 45 35 45 59 66 74 66 56 79 91 78 77 72 53 51 57 55 51 50 51 51 48 45 42 33 22 18 17 16 16 14 14 16 16 17 18 19 21 22 22 22 22 22 20 19 18 17 17 13 7 5 4 5 6 6 6 6 6 6 6 7 7 7 7 6 7 5 6 6 6 7 6 6 9 9 12 14 18 25 25 24 23 21 31 37 25 23 34 37 35 35 43 50
9 22 60 77 64 45 37 53 72 73 65 65 76 86 89 85 71 56 52 55 54 53 57 60 56 53 49 43 39 33 24 19 19 19 19 19 20 19 20 21 22 23 24 24 26 27 25 23 21 19 18 16 12 7 5 6 7 8 8 8 7 7 7 7 8 7 8 7 7 7 6 6 6 6 7 8 8 9 10 15 15 15 20 22 28 35 33 43 50 30 18 28 35 38 39 41 50
12 18 46 75 80 61 40 42 62 73 78 78 70 73 82 76 64 56 48 51 60 63 67 69 64 61 58 49 45 40 29 22 23 24 23 23 24 24 24 26 26 26 26 29 31 29 27 25 23 21 19 16 12 8 6 8 10 10 9 9 9 8 8 7 8 8 8 8 7 7 6 6 6 6 8 10 11 12 13 15 16 16 18 17 21 28 29 40 56 46 29 27 32 40 46 49 56
11 13 37 72 89 74 49 39 50 69 81 80 68 67 73 68 61 57 49 52 62 63 65 70 68 64 63 60 53 41 29 24 24 25 25 25 27 29 29 30 30 30 32 34 33 30 28 28 27 23 20 17 13 9 9 11 12 11 11 10 9 8 8 8 9 10 9 9 8 7 7 6 6 7 9 13 14 14 15 16 17 17 16 15 16 20 20 25 42 55 48 37 39 49 53 56 62
21 29 46 54 71 79 68 53 52 64 71 70 66 61 61 62 61 57 52 52 57 58 60 65 66 62 61 62 58 45 29 24 27 28 27 28 30 32 33 34 35 35 38 38 34 31 31 30 28 26 23 20 16 13 13 14 14 13 12 10 8 7 8 9 10 10 9 9 8 8 9 8 8 10 12 16 18 18 18 18 17 15 14 13 12 15 19 21 30 43 51 49 50 57 59 60 65
40 43 45 34 52 76 80 73 66 68 74 74 66 50 41 45 50 50 47 46 49 52 56 60 60 56 56 60 60 49 35 28 30 31 29 32 36 36 38 40 41 41 41 39 34 32 32 29 28 30 29 25 20 17 18 18 16 14 11 8 8 8 9 9 9 10 9 9 8 9 10 10 10 12 15 17 20 21 20 18 15 12 10 10 10 11 16 24 30 34 45 48 47 62 76 72 67
70 46 35 47 76 80 75 85 82 72 75 78 66 49 40 39 40 39 37 39 42 47 56 62 58 54 55 60 62 57 49 42 37 34 34 38 41 41 42 44 45 45 43 39 36 33 30 27 28 33 34 29 23 19 18 18 16 12 9 7 7 8 8 9 9 10 9 9 10 10 11 12 12 14 17 19 21 21 18 16 12 10 9 8 9 10 12 21 31 42 59 57 47 66 87 82 71
79 69 56 64 83 79 71 82 89 78 70 70 65 61 57 50 45 46 44 42 42 50 63 66 62 59 56 57 62 62 59 52 42 37 41 45 46 44 45 48 48 46 44 41 38 34 30 27 27 31 33 29 25 21 16 13 11 9 8 7 8 8 9 10 10 10 10 10 12 13 13 12 13 16 19 20 20 18 15 14 12 10 10 11 11 13 16 22 32 51 70 64 51 64 80 79 74
74 91 82 68 65 75 76 69 80 86 77 72 66 64 69 63 55 59 62 58 57 63 71 72 71 69 63 60 63 63 59 51 44 43 46 47 47 47 49 52 50 48 48 46 40 34 31 29 28 28 29 27 25 21 15 10 8 8 8 8 9 10 10 11 11 11 11 12 13 14 14 13 15 19 21 20 17 16 15 14 13 11 10 13 19 25 28 29 35 49 58 52 45 55 67 75 77
87 95 85 74 59 69 81 70 74 85 83 83 73 63 67 64 60 67 69 69 70 71 72 71 66 63 63 64 61 58 56 51 47 48 48 49 50 53 55 54 52 51 50 48 43 38 35 32 29 26 25 26 23 19 13 9 8 8 8 10 10 11 11 12 13 13 13 14 14 14 15 16 18 20 19 18 16 16 16 14 13 12 10 14 24 37 48 57 65 63 54 45 39 44 58 69 75
68 63 59 69 60 60 71 68 70 74 74 81 82 76 70 61 62 72 75 73 73 73 73 68 59 52 57 63 59 54 53 51 51 51 51 54 58 60 60 56 54 53 52 51 48 44 39 35 29 23 21 24 22 17 12 9 9 9 10 12 12 13 15 15 16 16 16 17 17 17 17 19 21 20 18 17 17 17 17 15 14 12 11 13 20 34 52 74 92 88 69 58 49 45 57 69 74
Wind_Speed
38 37 36 36 36 36 37 39 38 38 39 39 35 30 26 21 17 16 22 28 28 36 35 26 27 27 30 34 32 31 33 33 31 32 33 32 28 26 22 18 17 15 13 13 13 13 13 13 13 14 13 13 13 13 14 15 16 16 17 18 19 19 20 21 21 22 22 22 22 22 22 21 20 20 19 20 20 20 20 20 19 18 17 17 16 15 14 13 13 13 13 13 12 12 12 12 11
34 34 34 33 34 34 35 37 35 36 38 39 35 31 27 18 20 23 27 32 36 41 29 24 30 28 30 35 36 32 31 33 32 32 31 30 28 25 21 16 14 13 12 12 12 12 12 12 13 13 13 13 13 13 14 15 16 17 17 18 19 20 20 21 22 22 22 22 23 22 22 21 20 19 19 20 20 20 20 20 19 18 17 17 16 15 14 13 13 13 14 13 13 12 12 11 11
31 31 31 31 32 32 33 35 33 33 33 37 34 27 23 14 20 26 28 37 40 37 28 32 35 30 29 34 36 30 28 29 28 27 25 24 22 21 16 12 12 11 11 11 11 11 11 11 12 12 12 13 13 14 15 16 17 18 18 18 19 20 21 21 21 22 22 22 22 22 21 20 20 19 18 19 20 20 20 21 20 19 18 17 16 16 14 13 13 13 14 13 13 12 12 11 11
30 29 30 30 30 30 31 33 30 30 30 32 27 18 15 10 18 29 35 37 29 28 28 33 36 32 31 33 34 28 25 22 20 20 18 17 17 16 11 10 10 9 10 10 11 10 11 11 11 12 12 13 13 14 15 16 17 18 18 19 19 20 21 21 21 21 22 22 21 21 20 20 19 18 18 18 19 20 20 21 21 20 18 17 16 16 14 13 13 12 13 14 13 12 12 11 10
29 28 29 28 29 30 28 29 27 27 27 27 18 10 17 20 30 40 44 37 24 26 26 29 35 33 30 32 33 27 23 18 15 14 13 13 12 11 8 9 9 8 9 9 10 9 10 10 11 11 12 13 14 15 16 17 18 18 18 19 19 20 20 20 21 20 21 21 20 20 19 19 19 18 17 17 18 19 20 21 21 20 19 17 16 16 14 13 12 12 12 13 13 12 12 11 10
28 27 28 27 29 28 26 26 25 26 23 23 18 12 23 31 37 42 44 40 26 25 26 29 34 31 28 28 28 24 21 18 14 11 11 10 8 8 6 8 8 7 8 9 9 9 10 10 11 11 12 13 14 15 15 17 18 18 18 19 19 20 20 20 20 20 20 20 20 19 19 19 18 18 17 16 17 19 20 20 20 20 19 17 16 16 15 13 12 12 11 12 13 12 12 12 11
27 27 27 27 27 26 27 24 23 23 18 19 18 14 29 40 42 41 41 38 30 30 31 31 30 30 29 25 24 21 18 15 11 9 8 8 7 7 6 7 6 7 7 8 9 9 10 10 11 12 12 14 14 15 16 17 18 19 19 19 20 20 20 20 20 20 19 18 19 19 18 18 18 18 17 16 16 18 19 20 20 20 19 18 16 16 15 13 12 12 11 12 13 12 12 12 11
27 27 26 26 27 26 25 24 22 19 16 18 18 21 37 45 39 38 40 36 34 35 31 28 28 30 28 23 22 19 15 11 9 8 7 7 7 6 5 5 5 7 7 8 9 10 10 11 12 12 13 13 14 15 16 17 18 19 19 20 20 20 20 20 20 19 18 17 18 18 18 18 18 18 17 17 16 17 18 19 20 20 20 18 16 15 15 13 11 12 11 12 13 12 12 12 11
27 27 26 25 27 26 23 23 21 18 20 20 19 31 45 43 30 29 34 34 36 35 29 24 24 28 26 22 20 16 13 10 10 8 7 7 6 5 5 4 5 7 8 8 9 11 11 12 12 12 12 13 13 14 16 17 18 18 19 19 19 19 19 19 19 19 18 17 18 18 18 18 18 18 18 17 16 16 18 19 20 20 20 19 17 15 15 13 11 11 11 11 12 12 11 12 11
27 27 27 25 26 26 23 21 18 18 18 16 22 35 42 38 28 26 30 32 32 31 29 22 21 27 23 19 18 15 13 11 10 8 7 6 5 5 5 5 5 7 8 9 10 12 12 13 12 12 12 12 13 14 16 17 17 18 17 18 18 18 18 18 19 18 18 17 18 18 18 18 18 18 18 18 17 16 17 18 19 19 20 19 17 15 15 13 12 12 11 11 12 12 11 11 11
27 27 27 25 26 25 22 18 15 14 13 18 29 33 33 28 24 26 26 28 29 28 27 19 21 27 22 19 17 14 13 12 10 8 7 6 5 5 5 5 6 8 9 10 12 13 14 13 13 12 12 12 13 15 16 17 17 17 17 17 17 18 18 18 18 18 18 18 18 18 18 19 19 18 18 19 18 16 16 17 18 19 19 19 17 16 15 14 12 12 11 11 12 12 12 11 11
27 27 27 26 26 24 20 14 6 8 14 26 32 30 26 20 21 24 20 23 27 27 24 18 23 25 20 19 17 15 13 12 11 8 7 6 6 6 6 6 7 9 11 12 13 14 15 14 13 12 12 13 14 16 17 17 17 17 17 17 17 17 17 17 17 17 18 18 18 18 18 19 19 19 19 20 19 17 16 17 18 19 19 18 17 16 16 14 12 12 11 11 11 12 12 12 11
27 27 27 26 26 23 19 14 7 8 23 30 31 26 18 16 20 21 20 23 24 25 24 22 24 23 18 18 17 16 13 12 10 8 7 7 6 7 7 7 8 10 13 15 16 17 17 15 13 12 13 13 14 16 17 17 17 17 17 17 17 17 17 17 17 17 18 18 18 18 18 18 18 18 19 20 21 19 17 17 18 18 18 17 16 15 16 15 12 11 11 11 11 12 13 12 11
27 28 28 27 26 23 22 19 17 20 26 30 30 19 10 16 22 21 22 22 24 26 24 24 25 23 19 18 18 16 13 12 10 8 8 7 7 7 8 8 10 12 15 18 20 20 18 15 13 13 14 14 15 16 17 17 17 17 17 17 17 17 17 17 17 17 18 18 18 18 18 18 18 18 19 20 21 21 18 17 17 17 18 17 16 15 15 15 13 11 10 10 10 11 12 12 12
28 29 28 27 25 24 24 22 21 18 18 28 31 16 13 20 21 20 20 20 27 27 23 23 25 24 22 21 19 16 13 12 11 10 9 8 8 8 9 9 12 15 19 23 23 21 18 15 14 15 14 15 16 17 18 18 18 18 17 17 17 18 18 18 18 18 18 18 18 18 19 18 18 17 18 19 21 21 19 17 16 16 17 17 15 14 14 14 13 11 10 10 10 10 12 12 12
28 29 27 25 25 24 22 21 21 16 16 30 32 17 17 22 17 17 20 23 25 23 23 24 24 25 25 22 18 16 15 13 12 11 9 9 9 9 10 11 15 20 23 25 22 15 12 13 15 15 15 16 17 17 18 18 19 18 18 17 18 19 19 19 19 19 18 18 19 18 18 18 17 16 17 18 20 21 20 17 16 16 17 17 16 14 14 14 13 11 10 10 10 10 11 12 12
27 28 26 25 25 19 16 18 17 18 23 35 34 19 19 22 20 22 24 25 22 21 25 25 24 27 24 19 15 16 15 13 12 11 10 10 10 10 11 14 20 23 24 24 19 11 8 11 13 13 15 16 17 18 18 19 20 18 18 18 19 20 20 20 20 19 19 19 19 19 18 18 17 16 17 18 20 22 22 19 17 16 16 17 16 15 14 13 12 11 10 10 10 10 11 12 13
26 27 25 24 22 13 12 16 18 26 32 38 34 20 20 23 25 27 23 23 23 23 26 24 25 27 23 18 16 16 14 13 12 11 11 11 10 11 13 17 23 25 24 22 17 13 13 13 12 13 16 18 19 20 20 20 20 19 19 19 20 21 22 22 21 20 20 20 20 19 19 19 18 18 17 18 20 21 22 21 19 18 17 16 16 15 14 13 12 11 11 10 10 10 11 13 14
26 26 24 24 19 14 16 25 28 35 38 40 32 19 22 25 26 26 23 26 26 25 27 26 26 25 23 21 17 15 14 13 13 12 12 11 12 13 15 20 24 25 22 20 17 15 15 15 15 17 19 20 20 21 20 20 20 19 19 21 22 23 22 22 22 21 20 20 19 18 19 19 19 19 17 17 18 19 21 22 20 19 18 16 16 15 14 13 12 12 12 10 10 10 12 14 14
25 25 24 23 20 17 26 36 36 38 40 40 29 18 23 25 25 26 25 29 28 27 29 26 26 23 22 22 18 16 15 14 13 13 12 13 14 16 18 21 24 25 21 20 19 18 19 18 18 19 20 20 21 20 20 20 19 19 21 23 23 24 24 22 22 21 19 19 19 18 18 17 17 19 19 19 19 20 21 21 21 20 19 17 15 15 15 15 14 13 12 11 11 11 13 15 15
25 26 24 24 24 25 37 42 39 39 39 35 24 18 24 25 24 27 28 28 27 28 29 27 25 23 22 22 20 18 16 15 14 13 13 15 17 17 19 20 23 25 22 21 21 21 21 19 17 18 19 20 20 19 19 19 19 19 22 24 24 25 24 22 21 19 17 18 19 18 17 17 19 20 21 21 21 22 23 23 23 21 19 17 16 15 15 15 15 14 13 12 11 12 13 13 14
26 25 23 26 30 34 41 43 40 39 35 29 21 17 24 28 26 26 28 26 24 27 28 27 24 23 24 23 20 19 18 17 15 14 15 16 17 17 18 20 23 24 24 23 22 22 22 20 18 18 18 19 18 19 19 17 16 18 22 23 23 21 19 18 18 16 15 17 19 19 19 20 21 23 22 21 21 22 23 24 23 21 18 17 15 15 15 15 16 16 15 13 12 13 13 13 13
26 22 23 29 34 36 40 42 39 35 31 27 24 24 29 30 26 23 25 24 22 27 29 25 21 22 24 23 20 19 19 17 15 15 15 15 16 16 18 21 22 24 25 25 24 22 21 21 20 20 20 18 17 17 16 14 16 18 20 21 19 17 17 17 18 18 18 19 20 21 21 22 24 25 24 24 24 21 21 21 21 20 18 15 15 15 15 15 16 16 16 15 14 15 15 15 14
25 22 25 30 32 32 38 42 37 31 30 31 30 32 33 28 26 25 27 28 27 29 28 23 22 22 23 22 19 19 19 18 17 16 14 14 16 18 20 21 22 24 24 24 23 22 21 22 22 21 20 18 17 17 17 18 21 21 19 19 19 19 20 20 19 21 22 22 22 22 23 24 26 26 27 27 26 22 19 19 19 19 17 15 14 14 14 15 15 16 17 17 16 17 17 18 17
24 23 26 31 32 31 37 42 35 27 29 33 30 30 29 25 27 30 32 35 32 29 27 22 22 22 22 21 20 20 20 18 16 14 14 15 17 19 20 21 22 23 23 23 23 23 24 23 21 20 19 19 19 20 22 24 24 22 20 19 20 20 20 21 21 20 22 23 22 23 24 26 26 26 26 26 25 23 20 18 16 16 16 15 14 14 14 15 15 16 17 18 18 19 19 19 18
24 24 27 31 33 33 38 40 33 27 28 32 30 29 29 28 31 34 36 37 33 30 28 21 18 20 22 22 21 21 19 16 14 13 15 17 18 19 20 22 22 22 23 24 23 24 24 22 21 20 20 20 21 23 24 23 22 21 20 19 19 19 20 21 20 19 20 21 21 22 23 24 25 24 23 23 21 20 19 18 17 14 15 17 16 13 14 15 15 15 17 18 19 20 21 20 19
25 27 29 31 33 34 36 38 32 27 30 32 30 29 32 33 32 33 37 38 33 31 29 23 18 21 23 21 21 21 19 16 14 15 17 18 19 19 20 21 22 22 23 23 22 23 22 20 20 20 20 21 22 22 21 21 20 19 19 18 17 18 20 20 18 19 20 20 20 21 22 22 22 21 20 20 19 18 18 18 17 15 14 17 16 14 15 16 17 17 18 19 20 21 21 19 17
27 28 28 30 33 33 35 35 30 27 31 31 28 29 34 34 29 30 38 38 35 31 27 25 24 25 23 20 22 22 19 17 15 17 18 19 19 19 20 21 22 22 22 22 21 20 19 18 18 19 20 21 20 18 18 20 20 19 19 19 18 18 18 18 19 19 19 19 19 19 20 20 19 19 19 19 18 18 19 19 19 18 16 16 16 16 18 18 18 19 19 20 21 21 18 16 16
27 26 27 29 30 32 34 32 29 30 30 28 27 30 35 32 27 34 41 36 34 32 28 26 25 25 25 23 25 24 21 18 18 19 19 19 20 19 20 21 21 21 20 20 18 16 16 16 16 17 18 18 17 16 17 18 19 19 20 20 19 18 17 18 19 19 18 17 17 17 17 17 18 18 19 18 17 16 18 19 20 20 17 17 17 16 18 19 18 18 18 19 20 20 17 16 17
28 25 25 27 29 31 33 29 29 29 28 28 26 28 34 31 30 37 40 33 31 32 30 27 25 25 27 27 27 25 21 19 20 21 20 19 20 20 20 21 21 19 18 16 15 14 15 15 15 16 17 16 15 13 14 17 18 18 18 19 18 17 17 18 19 18 16 15 15 15 15 16 17 17 19 20 19 18 18 18 19 19 18 18 18 18 19 18 16 16 17 18 19 19 18 17 19
27 24 24 26 29 31 30 27 27 26 28 30 26 27 30 28 31 37 36 31 29 30 31 29 27 28 30 30 27 24 21 19 20 21 19 20 20 20 20 21 20 18 16 14 13 14 15 15 16 16 17 17 15 13 14 16 16 16 15 15 16 16 16 16 18 18 17 15 14 14 14 16 17 18 20 22 23 22 21 20 20 20 19 20 21 20 20 18 16 15 16 17 19 19 18 19 20
25 24 24 26 27 29 29 27 24 24 29 31 27 23 20 23 33 36 31 29 28 28 29 28 27 30 33 31 25 22 21 20 20 19 18 20 20 20 19 19 18 17 15 14 13 14 14 16 17 16 17 17 16 15 15 16 15 15 14 13 14 14 15 15 16 17 16 15 15 15 16 17 19 21 23 25 26 25 24 24 22 21 21 21 21 20 20 18 16 16 16 16 18 20 19 19 20
26 25 24 25 25 24 27 27 24 24 30 30 22 14 10 25 38 36 29 27 29 28 28 29 30 33 35 30 25 24 22 19 18 18 18 19 18 18 18 17 17 16 15 14 14 14 14 16 17 17 17 17 16 15 16 16 16 16 15 14 14 14 14 14 15 16 17 17 17 18 19 21 23 25 27 27 27 26 25 25 24 23 22 22 21 20 20 19 18 17 17 16 16 18 18 19 21
25 25 24 24 23 19 21 27 25 24 29 27 20 20 18 33 40 33 28 27 30 30 28 31 33 34 34 31 28 25 22 20 18 17 17 18 17 16 16 16 17 17 16 15 15 14 14 15 17 16 17 18 16 16 15 15 16 17 16 14 14 14 14 15 15 15 17 19 19 20 21 24 26 28 29 28 27 27 26 26 25 24 23 21 20 20 20 20 20 20 19 18 17 17 18 20 22
24 24 23 23 22 16 17 28 27 23 26 24 25 26 27 34 37 31 26 26 27 28 31 35 35 34 33 30 28 24 21 20 18 17 17 16 15 15 16 17 17 17 17 16 16 15 15 16 17 16 17 18 17 16 16 16 17 17 17 15 15 15 15 15 15 15 16 18 21 21 22 25 25 26 27 27 27 28 27 27 26 24 23 21 20 20 19 19 20 20 20 20 19 19 20 22 22
23 23 22 21 17 13 17 30 31 22 23 21 27 30 31 33 34 30 27 27 26 26 31 36 36 35 33 29 26 23 21 20 18 16 15 14 14 15 17 18 18 18 17 17 16 16 16 17 17 17 17 17 16 16 17 17 17 17 17 16 16 17 16 16 16 17 16 18 21 22 24 27 26 26 28 29 30 29 28 27 27 27 25 24 22 22 21 20 20 20 22 22 21 20 22 23 23
17 20 21 18 13 12 18 28 31 24 21 20 25 29 31 31 32 30 30 29 27 29 32 35 37 35 32 29 26 24 22 19 17 16 15 16 16 18 20 20 19 18 18 17 17 16 18 18 17 17 17 17 16 16 17 16 16 17 17 16 18 19 18 17 19 19 19 20 22 23 25 28 29 30 29 30 31 30 29 28 27 28 28 26 25 24 23 22 21 21 22 22 22 21 22 24 24
15 14 19 17 16 15 19 22 25 22 20 21 24 29 30 30 31 31 31 30 28 29 29 31 34 32 29 27 25 23 21 20 18 18 19 18 19 20 20 20 19 19 18 17 17 18 19 19 19 18 17 17 17 17 17 16 16 16 16 16 18 19 19 19 21 21 21 22 23 25 27 28 31 34 32 30 30 28 28 28 26 27 28 27 26 25 25 23 22 22 23 23 22 22 22 23 23
23 17 18 19 20 20 18 20 23 21 20 21 24 31 31 30 32 30 31 32 30 28 24 24 28 29 28 26 24 23 21 21 21 21 21 20 20 20 20 20 20 19 19 18 18 18 19 20 19 19 18 17 17 17 17 17 16 16 17 17 17 18 19 19 20 20 20 22 23 26 28 28 31 34 34 32 29 26 26 26 25 26 27 27 27 26 26 26 24 24 25 24 22 22 23 23 23
31 26 23 22 21 22 18 22 25 18 17 20 22 31 31 32 34 30 30 32 31 31 27 23 25 28 29 28 25 24 24 24 25 24 23 22 21 20 20 20 20 20 19 19 18 19 19 20 20 19 19 18 18 18 17 17 17 17 17 18 17 18 19 19 20 20 21 22 23 25 27 28 30 31 33 33 31 28 25 24 24 24 25 26 27 27 26 27 27 26 27 26 25 25 25 25 24
35 31 27 22 20 21 20 27 30 17 18 24 29 37 33 30 31 30 31 31 31 34 33 29 28 28 29 29 27 26 27 27 27 26 24 23 22 21 21 21 21 20 19 19 19 19 20 21 21 20 19 18 18 19 19 18 18 18 18 18 18 18 19 20 20 21 22 22 23 24 26 27 29 30 31 32 32 30 27 25 25 25 25 26 27 27 26 26 27 29 29 28 28 27 27 26 25
36 33 28 22 18 20 22 31 33 21 22 29 35 39 34 27 25 27 29 30 32 34 34 33 32 32 32 32 31 29 29 29 29 27 25 24 23 22 22 22 22 20 19 19 19 19 20 21 21 21 20 19 19 19 19 19 19 19 19 19 18 19 19 20 21 22 23 24 24 24 25 27 28 29 30 31 32 31 30 29 28 28 29 29 28 27 27 27 28 29 30 30 30 29 29 27 25
37 33 29 25 23 21 23 33 33 25 28 33 34 35 35 32 29 30 31 30 31 31 32 33 33 34 33 33 33 31 30 30 29 28 25 25 24 23 23 23 22 20 19 19 19 19 20 21 21 21 20 20 20 20 20 19 19 19 19 20 19 19 20 21 22 23 24 25 25 25 26 27 28 30 31 31 32 32 32 32 33 32 31 31 31 29 28 28 28 28 30 31 31 31 30 28 27
36 32 30 30 26 23 23 36 36 27 26 28 31 33 35 36 35 35 34 31 31 30 31 32 33 33 32 33 33 31 31 30 29 28 26 25 25 24 23 23 22 21 19 19 19 19 20 22 22 21 21 21 21 21 21 20 20 19 20 20 20 20 21 22 23 23 24 25 26 26 27 27 29 31 32 32 32 33 33 34 35 34 33 33 32 30 29 28 28 28 28 30 31 31 31 29 28
35 31 30 30 28 27 24 31 33 27 23 24 29 33 32 34 36 36 35 34 33 33 31 30 31 31 32 33 33 32 32 30 29 28 27 26 25 24 24 23 22 21 20 19 19 20 21 22 23 23 23 23 22 22 22 21 20 21 21 21 21 21 21 22 22 23 24 25 26 27 28 28 29 30 32 34 34 34 35 36 37 36 36 36 34 32 30 29 28 28 29 30 29 30 31 31 30
31 24 23 29 35 33 25 26 27 21 23 27 28 32 31 29 33 35 32 32 33 34 33 32 31 29 30 33 33 32 32 31 29 28 27 26 24 24 24 23 22 21 20 20 20 21 21 22 23 24 24 24 24 23 23 22 21 21 21 22 22 21 21 22 22 23 24 25 26 27 28 28 29 30 32 34 35 34 35 36 37 36 37 38 36 34 32 31 30 29 29 30 30 30 31 32 31
32 23 19 27 38 38 27 27 30 24 24 27 25 28 29 27 32 36 32 31 34 33 32 33 33 31 30 31 33 33 32 31 29 27 27 26 24 25 24 23 22 20 20 21 21 22 22 23 24 25 26 26 25 24 24 24 23 23 23 23 23 22 22 22 23 23 24 25 26 28 29 29 29 30 31 34 35 35 35 36 36 36 37 38 37 37 35 34 33 31 30 31 31 31 32 33 32
36 31 23 23 33 40 34 27 30 33 32 25 20 24 27 26 32 38 35 36 37 33 30 32 34 34 33 32 32 33 33 31 28 27 27 26 25 25 24 23 22 21 21 21 22 23 23 24 25 26 27 27 26 26 25 25 24 24 24 24 23 23 23 23 23 24 25 26 28 29 30 30 29 29 30 33 35 36 36 37 37 36 36 38 38 38 37 36 35 34 32 32 33 32 32 33 32
38 36 28 22 26 38 41 33 29 34 30 19 17 23 27 28 33 39 39 39 37 32 30 32 34 34 35 34 33 33 33 31 28 27 27 27 26 25 23 23 23 22 22 22 23 24 24 25 26 27 27 27 27 26 26 26 25 25 25 24 24 23 24 24 25 25 26 28 29 30 31 31 30 30 30 32 34 36 37 37 39 38 37 39 40 39 37 36 36 36 34 33 34 34 33 33 32
38 39 35 27 25 34 43 42 36 32 24 18 20 24 27 30 34 39 40 38 34 31 30 32 32 32 32 33 32 31 31 30 28 28 28 27 26 24 24 24 23 23 23 23 24 25 26 27 27 28 28 28 28 27 26 26 26 25 25 24 24 24 25 26 27 27 28 29 30 30 31 32 32 31 31 32 33 35 37 37 39 39 39 40 41 40 38 38 36 34 33 34 34 34 33 32 32
38 41 39 31 24 27 38 45 42 34 27 23 24 25 30 34 36 40 41 37 33 29 29 31 32 31 29 29 29 29 30 30 29 29 28 28 26 25 25 24 24 24 23 24 25 26 27 28 28 29 29 29 28 27 27 27 26 25 25 24 25 26 26 27 28 29 29 30 30 30 31 32 32 32 31 32 33 34 37 38 39 40 39 40 41 40 39 40 38 35 33 33 33 34 33 32 31
37 39 40 39 31 22 27 36 38 33 28 25 28 32 35 38 38 38 38 37 34 30 29 30 32 32 29 28 28 28 29 30 30 29 29 28 27 26 25 25 25 25 25 25 26 27 28 28 29 29 29 29 29 28 28 28 27 26 26 26 27 27 27 28 29 29 30 30 30 30 30 30 31 31 31 32 33 35 37 39 39 39 39 39 40 39 38 39 39 37 35 33 32 33 33 32 31
33 38 40 42 34 23 22 26 28 29 27 26 30 37 40 42 43 42 40 38 35 33 33 32 32 32 31 30 29 28 29 30 30 30 29 28 27 27 27 27 27 27 27 27 28 28 29 29 29 29 29 29 29 29 28 28 28 28 28 28 28 29 29 29 30 30 30 30 30 30 29 29 30 31 31 32 34 36 37 38 38 37 38 38 39 38 36 36 37 37 36 34 32 32 32 31 30
26 38 42 36 26 23 26 23 23 29 29 26 29 36 41 42 44 46 45 41 36 34 34 34 34 33 32 31 30 29 29 29 30 29 29 29 28 29 29 29 29 28 28 29 29 30 30 30 30 29 29 30 30 30 30 30 30 30 30 30 30 30 30 30 31 30 30 31 31 31 30 29 30 31 32 33 34 35 35 35 35 36 36 37 37 36 35 33 34 36 34 32 32 32 31 30 30
23 27 34 33 27 27 31 27 22 26 29 29 30 34 37 40 41 40 40 40 37 33 31 33 35 36 35 33 31 30 29 28 28 29 30 31 31 31 30 30 30 30 30 31 31 31 31 31 31 31 31 32 32 32 33 33 32 32 32 31 31 31 31 31 31 31 31 31 31 31 31 30 31 32 33 33 34 34 33 34 34 35 35 36 35 34 33 32 33 34 33 31 31 33 32 31 31
28 20 23 29 31 30 31 30 24 21 24 29 32 35 35 37 37 34 33 34 34 33 31 32 33 33 34 35 33 30 29 28 29 31 32 32 32 32 31 31 32 32 32 33 33 33 33 34 34 34 33 34 34 34 34 34 33 33 33 32 32 32 32 32 32 32 32 31 31 31 31 31 32 33 33 32 33 33 33 33 34 34 35 35 34 32 31 31 32 32 31 31 31 32 33 32 31
30 21 20 26 31 31 31 31 25 19 19 21 29 35 35 35 35 33 33 32 32 33 33 32 31 30 29 31 31 29 28 29 30 32 33 33 33 33 33 33 33 34 34 34 35 35 36 36 37 36 35 35 35 35 35 34 34 33 33 32 32 32 32 32 32 32 32 32 32 32 32 32 32 33 32 32 32 32 33 34 34 34 34 35 35 32 29 29 29 29 29 30 31 32 33 32 31
36 26 22 23 28 29 30 30 26 23 21 19 23 31 33 33 32 33 34 32 30 31 31 30 31 30 28 27 28 28 28 29 31 32 33 33 34 34 34 35 35 35 36 36 37 37 38 39 39 38 37 36 35 35 35 34 34 33 33 33 33 32 33 33 33 33 33 33 33 33 33 33 33 32 31 31 32 32 33 33 33 34 35 35 35 34 31 28 27 26 26 28 31 32 33 33 32
Wind_Direction
257 257 258 258 257 256 256 254 253 253 251 251 254 258 259 266 266 251 250 257 266 265 261 261 267 274 277 277 277 278 277 275 272 270 273 277 280 282 286 295 299 300 299 299 300 303 307 310 314 315 317 319 323 329 332 334 334 337 340 340 337 335 334 334 332 329 328 330 331 332 333 333 333 332 332 332 334 336 337 340 346 350 349 351 354 356 357 359 1 3 7 12 15 15 18 20 21
256 257 257 257 257 256 256 255 253 251 253 253 250 255 260 271 270 260 253 251 254 257 265 279 275 273 277 280 277 275 277 275 272 271 273 274 277 277 282 291 292 292 292 295 299 303 305 308 312 313 316 318 325 330 333 333 333 336 338 337 334 333 333 332 330 327 327 329 330 329 330 331 331 330 330 331 332 335 338 340 345 348 348 351 355 358 358 359 0 3 7 12 16 18 21 22 21
254 255 255 256 256 256 256 256 254 250 251 255 253 257 264 277 272 263 255 249 250 255 270 279 276 277 278 278 275 275 275 273 273 274 275 273 273 273 279 285 283 286 288 294 296 298 303 307 310 311 315 319 326 330 332 331 331 334 336 335 332 330 330 329 326 324 325 327 327 326 326 327 328 328 330 331 332 335 339 341 344 347 347 350 355 359 358 359 2 3 6 11 15 18 23 26 24
252 253 253 253 256 254 254 256 256 254 250 252 255 262 260 243 240 240 244 250 259 267 271 274 276 278 276 274 273 275 275 275 276 273 273 268 266 268 274 277 278 285 287 290 289 294 301 305 307 310 315 319 325 327 329 328 330 331 333 332 329 328 326 324 322 321 321 323 323 323 323 323 324 326 329 332 332 335 339 342 343 345 346 350 355 359 359 359 2 4 7 10 13 15 21 27 27
251 251 251 251 254 253 253 256 257 256 252 251 243 244 247 226 222 229 245 260 273 276 273 277 279 276 274 273 271 272 274 276 276 272 265 256 256 264 268 271 275 281 282 282 284 294 299 302 306 309 314 318 322 324 326 326 327 328 330 328 325 324 322 320 318 317 317 318 319 319 319 319 321 323 328 333 334 335 339 343 343 344 345 348 353 358 360 359 2 5 7 10 11 13 18 24 27
251 249 251 250 252 254 255 254 256 255 253 250 223 218 252 239 235 237 249 261 264 272 278 277 276 274 273 270 267 268 270 270 269 264 253 244 245 252 257 267 275 278 277 281 287 295 296 300 303 306 312 314 319 321 324 325 326 327 327 325 321 320 318 317 315 313 312 313 314 314 315 315 318 321 326 333 335 336 340 343 342 342 344 348 352 357 359 359 1 4 8 9 9 10 15 21 23
251 249 249 250 252 252 255 253 253 256 254 249 214 215 258 246 241 243 247 256 259 267 273 273 272 270 268 265 265 266 266 265 256 245 236 231 232 239 245 261 274 278 278 283 290 294 293 295 297 302 307 310 316 319 324 326 327 328 327 323 319 318 315 313 311 309 308 309 309 309 310 312 317 319 323 330 335 336 340 343 342 342 343 347 352 356 357 358 360 1 8 10 9 8 11 16 18
250 249 248 249 253 249 252 255 253 253 244 239 206 207 247 246 241 243 246 256 263 267 269 269 268 263 261 265 267 264 263 256 239 228 219 217 227 244 247 253 270 275 278 283 288 287 287 289 293 298 303 308 315 321 327 328 329 328 325 322 318 315 312 309 306 306 305 305 304 305 307 310 315 318 320 325 332 335 339 343 342 341 341 345 349 354 356 356 359 0 6 9 9 8 9 12 14
250 249 248 247 251 251 251 253 253 251 239 238 220 216 236 246 250 252 253 259 264 268 266 258 257 258 259 262 263 261 258 240 229 221 207 214 227 245 255 258 265 272 279 282 281 281 283 285 289 295 301 308 316 325 329 329 329 325 322 317 314 311 307 304 302 302 302 301 301 302 305 309 313 315 318 321 328 334 339 342 342 341 340 343 346 351 353 352 355 360 3 6 9 8 9 10 10
250 248 248 246 249 251 250 254 254 246 238 238 237 230 236 247 256 257 257 257 259 263 260 249 249 257 257 255 255 254 245 230 225 218 209 220 227 241 259 265 268 276 279 278 278 280 282 283 287 292 298 307 316 326 327 327 324 320 317 312 308 305 302 301 299 299 299 299 299 301 304 307 310 312 315 317 323 331 336 339 341 340 339 341 343 346 349 350 351 357 360 1 7 7 7 8 7
250 249 248 246 247 249 250 253 254 255 241 229 238 241 242 249 253 250 250 253 253 252 252 250 252 254 251 252 253 247 235 227 223 213 214 223 232 245 257 270 276 277 278 278 279 279 279 280 282 287 295 305 315 322 322 321 319 316 312 307 304 300 299 298 297 296 297 297 297 300 302 304 307 309 312 315 318 326 333 336 339 338 337 338 340 342 345 347 347 353 358 359 4 5 4 5 5
248 248 247 246 244 245 246 241 260 301 262 241 244 250 249 241 242 241 236 244 247 245 246 247 249 249 249 250 250 245 232 226 225 214 218 226 238 247 257 271 277 278 279 279 276 274 274 274 276 284 294 303 311 316 317 317 315 313 309 305 302 299 298 296 294 294 295 295 295 297 297 299 303 306 310 312 314 321 329 333 337 338 336 336 337 338 340 343 342 346 355 357 360 2 0 0 1
247 246 245 244 242 242 236 217 182 219 237 246 251 250 247 230 231 234 224 233 244 246 244 239 242 247 251 250 246 243 232 227 228 219 224 230 239 250 263 272 276 277 277 276 272 268 265 265 272 283 290 297 305 310 312 312 311 310 308 305 302 299 296 293 292 291 290 290 290 291 292 295 299 303 308 310 312 316 324 330 335 337 336 335 334 335 337 339 338 338 345 352 355 357 356 355 356
245 244 243 242 240 237 231 215 194 205 228 248 253 243 229 221 222 225 223 231 239 242 244 241 243 247 249 249 243 237 227 229 229 223 230 235 244 255 265 271 275 275 272 270 263 258 258 262 274 281 285 290 297 302 303 303 305 306 304 303 301 297 292 289 286 284 282 281 281 285 288 290 294 299 304 307 309 312 318 327 332 335 334 333 330 330 333 335 334 330 333 342 348 352 352 352 351
244 242 241 241 239 235 235 227 211 212 235 250 250 234 213 221 220 223 224 229 236 237 244 246 244 245 244 242 239 233 224 224 227 225 228 235 246 255 263 270 273 271 267 262 258 257 259 265 272 273 278 284 288 294 295 296 299 298 297 298 296 293 288 283 280 277 274 273 275 281 284 286 290 295 301 304 305 308 312 320 327 330 331 330 327 326 329 332 329 324 323 327 339 347 347 347 347
242 242 240 238 237 235 236 236 226 218 234 248 248 229 216 221 214 221 221 225 234 234 240 242 239 239 239 238 235 231 224 219 224 227 231 238 244 252 260 266 268 266 265 264 263 264 260 259 262 265 276 282 287 292 293 294 294 293 294 296 294 292 288 282 277 273 269 268 272 277 280 282 285 290 294 297 299 301 304 311 319 324 326 325 323 321 323 327 324 316 313 318 332 343 344 344 343
240 241 238 234 235 231 231 235 229 220 229 244 245 226 219 219 209 218 220 224 230 229 234 236 235 237 238 236 229 226 225 220 221 225 233 238 241 248 256 262 263 262 266 270 270 272 265 261 262 269 283 288 291 295 296 298 296 293 296 298 294 291 287 282 275 271 267 265 269 272 272 274 278 281 285 290 294 298 301 304 309 315 320 319 318 317 317 321 318 308 304 311 328 339 340 340 339
238 239 234 232 228 205 218 229 217 218 225 237 239 223 221 217 213 222 224 227 228 226 235 236 234 237 239 235 226 226 226 220 220 225 233 236 238 243 251 260 265 267 271 273 275 279 275 275 281 289 297 298 295 294 296 298 299 295 296 298 293 288 284 282 277 269 267 266 266 268 270 271 272 274 279 288 295 300 302 300 301 307 312 313 312 312 311 313 310 301 294 301 320 331 333 336 336
236 237 231 229 215 178 217 228 219 222 225 234 234 217 222 220 217 223 224 229 229 230 236 238 238 240 244 243 235 230 224 219 221 226 231 234 236 239 246 255 265 272 276 277 287 295 291 294 301 305 305 304 302 301 299 297 299 295 294 297 290 282 280 283 281 273 270 270 269 273 278 277 273 276 282 292 299 302 304 303 302 303 305 306 307 307 305 304 304 297 290 292 307 318 322 325 327
235 234 231 224 201 184 222 227 224 228 230 236 236 216 224 225 218 219 222 229 230 234 239 240 241 242 246 249 246 239 227 222 225 227 230 235 235 237 245 252 261 272 284 292 301 305 303 305 305 309 310 311 312 310 307 301 301 300 297 299 291 281 278 284 287 280 274 276 278 278 281 281 278 284 291 300 305 304 303 304 305 303 301 300 302 304 302 300 299 296 290 289 297 305 312 313 313
233 232 228 219 203 205 225 228 227 231 233 238 239 224 225 225 218 214 219 229 230 235 242 242 241 241 244 246 247 243 231 226 226 227 230 235 238 242 253 260 265 277 292 300 302 299 301 303 306 315 317 318 317 312 310 306 309 310 304 301 292 285 285 289 288 279 274 280 283 281 283 283 285 293 297 302 304 302 300 300 301 300 298 298 300 302 300 297 297 297 295 291 289 293 300 302 305
231 229 224 219 214 215 227 231 230 232 235 237 238 230 227 225 222 216 216 225 231 234 239 240 237 238 242 243 244 243 234 230 229 229 232 238 247 255 263 267 272 282 290 293 293 293 300 306 314 319 316 317 314 308 308 311 319 319 313 307 295 289 296 298 289 282 284 288 289 289 293 294 298 304 305 307 305 300 300 298 296 295 295 297 300 300 298 296 298 298 298 296 289 286 289 293 301
230 226 223 227 226 223 231 237 233 233 235 233 226 222 221 218 220 221 216 219 227 229 233 237 235 235 240 242 243 241 235 233 231 233 238 246 257 262 263 266 274 279 284 290 292 295 302 306 311 312 310 311 311 309 308 314 319 314 314 315 307 300 305 304 295 292 293 293 294 294 297 300 305 309 309 312 310 305 304 301 298 294 294 297 297 297 299 298 299 300 299 297 291 285 285 287 293
230 225 224 231 233 230 236 240 235 232 233 230 223 220 222 216 213 216 214 215 220 225 229 235 235 234 239 241 239 236 233 234 234 237 246 253 257 260 263 267 272 277 283 291 296 302 304 303 306 307 309 313 315 316 312 311 308 303 305 308 308 304 303 302 298 297 296 298 299 296 299 303 306 308 307 309 309 308 309 307 301 291 289 296 298 296 300 302 301 300 300 299 295 289 285 285 287
231 227 228 232 233 230 236 241 235 230 232 233 227 224 227 221 216 217 216 217 219 224 229 233 234 232 234 235 234 233 232 232 235 241 248 252 255 260 267 270 273 280 286 291 297 301 301 303 309 310 310 313 313 314 315 312 305 301 300 301 303 302 301 301 301 301 300 302 300 297 302 305 307 310 311 311 308 305 306 309 305 293 285 288 296 300 303 306 305 301 301 299 297 294 287 284 284
232 229 230 232 234 231 235 241 236 228 230 232 229 225 225 221 221 220 220 222 220 223 229 231 235 234 232 230 232 236 236 234 238 242 246 252 258 261 266 272 277 284 288 292 295 297 301 305 308 309 312 315 315 317 320 314 306 303 301 299 299 301 302 302 302 304 304 304 303 302 305 306 310 315 319 321 314 305 304 307 306 299 289 282 285 300 308 306 306 302 299 296 295 295 289 283 280
232 230 230 232 235 233 236 241 238 230 229 229 227 225 224 221 223 225 224 225 225 227 231 233 237 239 238 235 236 239 239 236 236 242 250 256 260 263 268 275 281 285 289 293 296 300 307 310 308 312 318 322 322 324 325 319 312 308 303 300 298 301 303 302 304 306 306 308 307 307 308 310 316 323 327 328 324 316 311 311 309 305 300 289 280 293 310 306 302 301 298 296 294 294 291 280 271
236 235 236 236 237 236 237 240 238 233 231 230 226 226 226 222 223 230 229 225 227 231 230 231 235 238 241 242 244 245 243 239 238 243 251 257 261 265 270 276 281 285 290 294 299 306 313 317 318 322 326 327 329 331 332 328 320 311 304 302 302 305 306 306 308 306 308 311 309 310 313 318 324 330 333 334 333 327 319 318 318 312 304 298 287 287 304 307 302 302 301 298 294 295 291 270 260
239 238 239 241 242 241 239 238 237 234 231 229 227 229 230 223 219 228 230 224 225 230 228 228 232 236 240 243 245 246 244 241 240 244 249 256 263 267 272 277 281 286 291 295 301 308 315 323 328 329 328 330 334 335 333 329 321 312 306 305 306 308 309 308 307 306 308 309 308 311 317 324 329 334 337 337 337 331 325 323 323 318 305 298 294 286 296 304 302 303 302 302 298 296 289 267 264
239 238 239 242 244 244 243 240 238 236 233 228 224 230 232 226 222 228 231 227 228 232 232 231 232 236 241 242 243 243 241 239 241 244 248 256 263 268 274 280 284 289 293 297 301 305 314 323 327 328 325 327 332 332 329 323 317 312 309 310 312 313 311 306 305 307 308 306 305 309 317 324 329 335 337 337 337 335 333 329 325 324 314 304 300 292 292 297 298 299 300 304 304 300 290 274 274
239 238 237 240 243 244 244 241 239 237 234 228 219 226 234 233 230 231 232 233 234 236 235 234 235 238 241 241 242 243 242 239 240 244 251 257 262 268 274 279 285 290 292 295 299 305 314 320 324 325 322 325 327 326 325 321 316 312 308 310 310 309 309 306 305 307 304 299 299 303 314 321 326 329 331 332 332 331 332 331 328 327 323 318 310 301 296 293 291 294 296 302 306 304 295 280 279
238 239 235 238 243 245 245 240 236 234 233 231 222 221 238 247 237 230 231 236 236 236 236 234 233 236 239 240 241 245 247 242 240 244 251 258 262 268 275 280 284 285 286 289 294 303 312 318 322 322 320 324 323 322 324 322 319 315 308 303 302 302 304 306 309 307 302 299 298 299 305 312 316 319 322 324 324 323 324 327 328 327 326 323 318 307 300 297 294 292 293 299 304 306 301 288 283
236 236 235 237 239 243 249 243 231 227 233 235 219 188 207 242 238 228 226 233 233 232 233 233 231 235 238 241 245 250 252 247 244 246 249 257 263 270 277 279 280 281 283 286 292 301 310 315 317 316 316 319 317 317 320 319 316 316 313 304 301 303 304 308 313 308 301 301 301 299 300 301 304 308 312 315 317 316 316 320 323 325 326 324 320 309 302 302 299 296 295 295 296 302 303 294 288
235 235 235 237 234 233 247 249 236 224 235 235 197 165 191 230 238 232 225 228 231 230 230 233 233 235 238 240 244 249 251 251 251 252 252 257 266 272 275 276 276 278 280 285 293 301 309 312 312 311 312 313 312 312 314 311 307 311 314 310 308 309 309 313 316 311 304 303 304 303 301 299 300 305 309 312 313 313 313 315 316 320 324 323 320 310 304 303 302 301 298 293 290 293 296 295 291
234 235 234 237 235 223 233 250 245 224 235 230 186 184 208 225 236 236 229 227 229 231 230 233 234 236 240 241 244 248 251 255 254 257 261 263 268 271 271 271 273 275 278 285 292 300 306 308 308 309 309 309 309 309 310 307 303 306 308 310 312 310 308 311 313 314 311 306 306 307 306 305 306 310 313 314 316 315 313 313 312 314 316 317 316 312 309 306 303 302 298 294 292 290 291 294 293
234 234 230 235 232 207 217 246 251 233 235 225 184 198 222 226 233 236 235 234 229 229 229 232 235 238 243 244 248 253 254 256 253 254 262 265 265 264 264 265 268 273 277 283 290 298 302 304 304 306 307 306 306 307 308 306 303 303 303 305 308 308 307 307 310 314 313 308 309 312 312 311 310 312 314 314 316 316 315 314 312 311 310 310 311 310 310 308 304 301 298 296 295 292 293 294 292
228 237 231 222 203 193 214 239 252 242 231 221 187 201 226 228 232 233 233 236 230 227 229 232 234 237 243 245 248 254 254 252 248 245 248 253 257 258 260 262 265 271 275 281 289 295 297 298 300 302 305 304 303 304 305 304 302 300 301 302 303 306 307 306 308 310 310 309 310 311 313 312 310 313 315 315 316 315 314 313 311 310 309 308 308 307 308 308 305 302 300 299 296 293 294 294 289
203 236 239 209 180 195 217 227 247 244 219 214 197 203 222 226 229 230 229 232 230 230 234 236 236 238 244 246 248 252 251 248 244 243 246 250 254 257 259 263 266 268 272 278 286 291 294 296 298 302 305 304 303 304 304 303 301 298 299 299 299 300 302 302 303 304 305 307 308 309 311 310 310 314 317 316 316 316 315 313 311 312 311 309 307 304 303 306 307 303 301 300 298 295 294 293 287
198 205 225 212 188 189 210 225 238 239 211 203 204 208 221 228 229 229 229 232 232 235 240 238 235 237 240 242 244 247 245 244 245 247 249 252 253 255 258 262 265 267 271 277 283 288 292 294 298 302 304 303 302 303 303 301 300 299 297 295 294 294 294 295 295 297 299 301 304 306 308 308 308 312 315 316 316 314 314 313 311 312 310 309 308 303 300 302 304 302 299 298 296 294 293 292 289
210 200 204 211 200 183 195 220 223 220 184 178 208 221 227 231 229 228 230 235 236 235 233 229 228 230 233 237 238 240 241 242 246 249 251 253 253 254 257 260 263 266 270 276 282 286 289 292 296 300 302 301 301 302 302 301 299 298 296 294 292 289 288 288 288 290 293 295 299 301 304 305 307 308 310 312 312 310 310 312 312 313 311 309 307 304 301 300 300 300 301 300 296 294 293 292 290
220 213 208 203 201 187 189 213 218 205 160 170 212 227 231 234 230 229 231 234 236 233 228 225 226 229 233 238 238 239 243 245 248 250 251 253 253 254 256 258 261 264 269 275 280 284 286 290 294 298 300 299 301 302 302 302 300 297 295 293 291 287 285 285 286 287 289 292 294 296 299 301 303 304 305 306 307 306 306 306 308 311 312 312 308 305 302 300 297 297 300 302 299 295 293 294 292
222 223 216 195 195 198 201 220 223 207 182 191 213 222 227 232 231 232 233 234 237 236 234 230 229 235 239 242 242 243 244 246 249 251 252 254 253 254 255 256 259 262 268 273 278 282 284 288 293 296 298 298 300 300 300 299 298 296 294 292 290 287 286 286 286 287 289 290 291 293 295 297 300 302 303 303 303 304 302 301 302 304 306 308 307 306 304 300 297 294 295 299 300 297 293 293 293
223 222 217 201 194 189 206 230 225 208 203 210 220 226 231 237 241 241 238 238 241 241 241 238 235 240 243 244 244 245 244 245 248 250 252 253 254 255 256 257 259 261 267 272 276 280 282 286 290 295 297 297 297 297 297 296 294 293 291 290 288 287 286 287 288 288 289 290 292 293 294 296 299 300 300 300 300 301 301 301 301 301 302 303 303 303 302 300 298 295 294 294 296 298 296 293 291
223 219 217 214 196 174 207 237 236 228 222 220 227 231 235 242 247 248 244 241 242 241 241 241 241 242 242 242 243 244 245 245 247 248 249 251 254 256 258 260 261 263 267 271 275 278 281 284 288 292 294 294 293 294 295 294 293 292 289 288 287 286 286 287 287 288 289 291 292 293 294 296 299 299 300 299 298 298 300 302 302 301 301 301 301 300 299 298 296 295 293 290 291 293 293 293 290
221 217 218 216 193 175 203 238 246 241 222 215 227 230 231 240 246 248 248 245 243 244 243 242 244 245 243 243 242 243 245 246 246 247 248 250 253 257 260 262 264 267 270 272 274 276 278 281 286 290 292 293 292 291 292 292 292 292 290 288 285 284 284 284 286 287 288 289 289 291 293 295 298 300 301 301 299 299 300 302 303 301 300 300 300 299 298 297 294 293 290 288 288 287 288 291 290
214 212 220 211 194 185 194 223 238 229 210 214 229 234 232 236 245 247 247 247 246 247 247 247 248 249 247 245 244 243 244 245 245 245 247 250 253 256 259 262 265 270 273 274 276 276 278 281 285 290 292 293 291 289 290 291 291 290 289 288 286 285 284 284 285 286 286 287 288 290 292 295 298 300 300 300 300 300 301 301 301 301 299 298 299 299 298 295 292 290 288 286 285 283 283 286 287
205 195 212 212 199 190 187 209 220 217 223 227 227 237 238 233 243 250 247 247 248 245 246 248 249 250 250 249 247 245 243 244 243 244 247 249 252 255 257 262 266 270 273 276 278 280 282 283 286 290 292 292 291 289 288 290 290 290 288 287 287 286 286 286 286 287 287 288 290 292 295 297 298 299 299 299 300 301 301 299 299 299 299 298 298 296 295 293 290 286 285 283 281 280 278 281 283
207 195 202 214 207 198 195 206 219 228 238 235 219 233 241 232 238 248 248 246 247 246 246 247 248 250 252 251 249 246 244 243 242 243 245 248 251 254 258 262 266 269 272 276 280 283 285 287 288 290 291 292 292 289 288 288 289 289 289 288 287 287 287 287 287 288 290 292 294 296 298 299 299 300 300 300 301 303 303 302 300 300 299 297 295 293 292 293 289 284 283 280 277 276 274 275 277
212 202 200 212 216 208 204 206 218 233 238 229 219 231 236 233 237 245 248 248 248 249 248 246 247 248 250 250 249 247 245 243 240 240 243 246 250 255 259 262 264 267 272 277 281 285 287 288 289 289 291 292 291 289 287 287 287 288 288 288 288 288 288 288 289 291 293 294 295 297 298 299 300 302 302 302 303 304 304 304 303 303 301 298 296 296 297 297 292 284 281 278 276 274 273 272 273
212 205 200 202 211 211 210 208 212 224 226 210 213 227 235 238 242 246 248 249 250 249 246 244 244 245 247 249 250 248 244 240 237 238 242 246 251 256 258 260 263 268 273 278 282 286 287 288 289 290 292 292 291 289 286 285 284 285 285 286 286 287 289 291 293 293 294 295 296 297 298 300 301 302 303 303 304 303 303 303 304 304 303 301 300 300 299 299 297 288 279 276 276 275 273 272 270
212 208 204 197 202 214 217 213 211 218 224 211 201 213 231 239 243 246 247 247 248 249 248 245 244 244 246 247 246 244 240 237 237 238 242 247 252 255 258 260 264 270 275 279 282 285 286 287 289 290 292 293 291 289 286 285 283 282 283 284 286 288 290 291 292 292 293 294 296 297 298 300 301 302 304 305 305 303 302 302 303 303 303 302 301 299 296 295 295 292 282 275 274 274 272 271 268
211 207 209 207 206 215 225 221 216 222 232 223 206 208 223 234 241 246 248 248 248 249 249 248 247 247 246 246 245 241 238 235 236 239 242 248 252 255 257 260 265 271 274 277 281 283 284 285 287 289 291 292 291 288 286 284 283 282 283 285 287 289 289 289 289 290 291 293 294 296 297 299 300 302 305 306 306 304 303 303 303 303 303 303 301 299 297 294 291 290 287 277 271 272 271 268 265
212 209 215 215 209 209 226 230 222 221 227 226 219 220 227 233 239 247 250 250 250 251 252 248 246 245 244 246 245 242 239 236 237 240 243 247 251 254 257 260 266 271 273 275 279 281 282 283 286 288 290 290 289 287 284 283 282 283 284 286 287 287 287 287 288 289 290 292 293 294 295 297 299 302 304 305 305 304 304 303 304 305 304 303 301 297 297 297 291 288 286 277 270 271 269 266 263
210 215 219 213 203 206 218 226 224 220 219 223 230 234 237 239 243 249 253 252 253 257 256 249 244 244 243 243 243 242 242 241 240 241 243 246 250 253 256 261 266 270 272 275 279 280 280 283 285 286 288 289 287 285 283 282 283 284 285 285 285 285 286 287 287 289 290 292 293 294 295 298 300 302 304 305 304 304 303 303 303 305 306 304 301 298 295 295 292 288 282 274 269 267 267 267 265
201 216 221 208 199 205 210 212 219 222 219 221 231 236 239 244 248 252 255 254 254 258 258 252 248 246 244 243 244 245 246 245 242 242 244 246 249 252 257 262 268 271 274 277 279 280 281 283 284 284 286 287 286 284 283 282 282 283 282 282 283 284 284 285 287 288 290 291 292 294 295 298 299 301 303 304 304 302 302 301 303 306 308 305 301 297 294 292 293 289 281 273 269 267 267 269 267
201 207 220 210 203 203 209 214 216 222 222 221 229 234 236 242 246 250 251 250 249 250 249 247 247 248 246 243 244 246 246 244 241 241 244 247 250 254 259 264 269 272 276 279 280 281 281 283 284 284 284 285 286 284 282 281 281 281 280 280 281 282 283 284 286 287 289 291 292 293 295 296 298 300 302 303 302 301 300 301 303 306 307 305 300 296 294 292 291 288 282 275 270 269 270 270 268
202 203 210 210 207 202 206 216 218 223 228 222 229 238 239 240 244 247 247 245 243 242 242 243 244 246 246 243 243 244 244 242 241 242 245 249 252 257 261 265 270 273 276 278 279 280 280 282 283 284 284 284 285 284 281 280 280 279 279 279 280 281 283 284 286 288 290 291 292 293 294 296 298 299 300 301 301 301 301 301 303 306 307 306 303 300 296 293 288 283 279 274 270 269 270 269 266
212 217 211 205 213 211 206 214 218 221 230 229 232 242 245 243 244 245 245 245 246 245 246 246 243 242 242 242 243 244 243 242 242 245 247 251 254 258 262 266 270 272 274 276 277 278 279 281 283 284 284 284 284 282 280 278 277 277 277 278 279 280 282 285 287 289 290 292 292 293 294 295 296 297 299 300 301 301 301 301 303 305 306 308 308 304 298 296 290 281 273 270 267 266 266 266 264